Location: Unspecified
(0.0000°N, 0.0000°E)
Time: 05:16:34
(UTC+00:00)

BlueWalker 3 - Pass Details

Date: 11 March 2024
Orbit: 485 x 495 km, 53.2° (Epoch: 17 April)

Event Time Altitude Azimuth Distance (km) Brightness Sun altitude
Rises 18:54:35 0° 340° (NNW) 2,530 5.7 -11.2°
Reaches altitude 10° 18:56:51 10° 349° (N) 1,653 4.7 -11.7°
Maximum altitude 19:00:17 35° 56° (NE) 799 2.5 -12.6°
Enters shadow 19:02:23 19° 111° (ESE) 1,198 3.3 -13.1°
